DW8871 Weather Reports


time (UTC)temp
C
wind
direction
speed
KPH
gust
KPH
rain 1hr
cm
rain 24hr
cm
rain mn
cm
humidity
%
barometer
mb
20260902100034 22 257 0.0 1.6 0.00 0.00 0.00 82 1013.6
20260902094537 22 0 0.0 4.8 0.00 0.00 0.00 83 1014.5
20260902093038 22 0 0.0 4.8 0.00 0.00 0.00 86 1014.5
20260902091535 21 0 0.0 3.2 0.00 0.00 0.00 90 1014.5
20260902090045 21 269 0.0 0.0 0.00 0.00 0.00 90 1013.3
20260902090038 21 0 0.0 0.0 0.00 0.00 0.00 90 1014.3
20260902084539 21 0 0.0 0.0 0.00 0.00 0.00 89 1014.3
20260902083033 21 0 0.0 0.0 0.00 0.00 0.00 89 1014.1
20260902081533 21 0 0.0 1.6 0.00 0.00 0.00 89 1014.0
20260902080037 21 0 0.0 0.0 0.00 0.00 0.00 87 1014.0
20260902080022 21 269 0.0 0.0 0.00 0.00 0.00 88 1013.0
20260902074537 21 0 0.0 0.0 0.00 0.00 0.00 87 1014.0
20260902073036 21 0 0.0 0.0 0.00 0.00 0.00 84 1013.8
20260902071536 22 0 0.0 0.0 0.00 0.00 0.00 84 1013.9
20260902070036 22 269 0.0 0.0 0.00 0.00 0.00 83 1012.8
20260902064538 22 0 0.0 0.0 0.00 0.00 0.00 82 1014.0
20260902063034 23 0 0.0 0.0 0.00 0.00 0.00 79 1014.1
20260902061554 23 0 0.0 0.0 0.00 0.00 0.00 77 1014.1
20260902060040 24 0 0.0 0.0 0.00 0.00 0.00 76 1014.0
20260902060023 24 269 0.0 0.0 0.00 0.00 0.00 76 1013.1
20260902054540 25 0 0.0 0.0 0.00 0.00 0.00 72 1014.0
20260902053043 25 0 0.0 0.0 0.00 0.00 0.00 69 1014.0
20260902051533 25 0 0.0 1.6 0.00 0.00 0.00 69 1014.0
20260902050034 25 0 0.0 3.2 0.00 0.00 0.00 68 1013.9
20260902050023 25 269 0.0 3.2 0.00 0.00 0.00 69 1012.9
20260902044539 25 0 0.0 4.8 0.00 0.00 0.00 69 1013.9
20260902043033 25 0 0.0 1.6 0.00 0.00 0.00 70 1013.9
20260902041538 25 0 0.0 1.6 0.00 0.00 0.00 70 1013.9
20260902040043 25 242 0.0 1.6 0.00 0.00 0.00 72 1014.0
20260902040033 25 242 0.0 1.6 0.00 0.00 0.00 72 1012.9
20260902034539 24 0 0.0 3.2 0.00 0.00 0.00 76 1013.9
20260902033035 24 0 0.0 3.2 0.00 0.00 0.00 82 1014.0
20260902031543 24 0 0.0 0.0 0.00 0.00 0.00 82 1013.8
20260902030037 25 0 0.0 0.0 0.00 0.00 0.00 83 1013.7
20260902030028 25 252 0.0 0.0 0.00 0.00 0.00 83 1012.6
20260902024539 25 0 0.0 0.0 0.00 0.00 0.00 81 1013.6
20260902023041 25 0 0.0 0.0 0.00 0.00 0.00 78 1013.6
20260902021532 25 0 0.0 0.0 0.00 0.00 0.00 76 1013.6
20260902020038 26 0 0.0 0.0 0.00 0.00 0.00 73 1013.5
20260902020018 26 252 0.0 0.0 0.00 0.00 0.00 73 1012.3
20260902014534 26 0 0.0 0.0 0.00 0.00 0.00 72 1013.3
20260902013038 27 0 0.0 0.0 0.00 0.00 0.00 69 1013.2
20260902011535 28 0 0.0 0.0 0.00 0.00 0.00 67 1013.1
20260902010033 29 0 0.0 0.0 0.00 0.00 0.00 63 1013.0
20260902004536 30 0 0.0 0.0 0.00 0.00 0.00 58 1013.1
20260902003041 31 0 0.0 0.0 0.00 0.00 0.00 56 1013.1
20260902001551 32 0 0.0 1.6 0.00 0.00 0.00 51 1013.2
20260902000040 33 258 0.0 4.8 0.00 0.00 0.00 49 1012.2
20260902000037 33 0 0.0 4.8 0.00 0.00 0.00 48 1013.4
20260901234538 34 264 0.0 4.8 0.00 0.00 0.00 45 1013.5
20260901233035 35 261 3.2 11.3 0.00 0.00 0.00 41 1013.5
20260901231534 35 263 3.2 12.9 0.00 0.00 0.00 39 1013.4
20260901230036 35 248 3.2 9.7 0.00 0.00 0.00 41 1012.3
20260901230033 35 249 4.8 11.3 0.00 0.00 0.00 40 1013.4
20260901224533 35 267 6.4 19.3 0.00 0.00 0.00 39 1013.6
20260901223038 35 273 11.3 20.9 0.00 0.00 0.00 36 1013.5
20260901221540 36 276 9.7 19.3 0.00 0.00 0.00 35 1013.5
20260901220034 36 296 4.8 17.7 0.00 0.00 0.00 40 1013.5
20260901220028 36 293 6.4 12.9 0.00 0.00 0.00 38 1012.3
20260901214604 36 272 9.7 24.1 0.00 0.00 0.00 36 1013.6
20260901213035 36 266 6.4 12.9 0.00 0.00 0.00 35 1013.7
20260901211535 36 261 9.7 22.5 0.00 0.00 0.00 37 1013.8
20260901210040 36 280 4.8 11.3 0.00 0.00 0.00 41 1012.9
20260901210037 36 295 6.4 12.9 0.00 0.00 0.00 41 1014.0
20260901204532 36 269 12.9 22.5 0.00 0.00 0.00 35 1014.1
20260901203037 36 261 8.0 22.5 0.00 0.00 0.00 36 1014.3
20260901201533 36 292 9.7 24.1 0.00 0.00 0.00 38 1014.4
20260901200039 36 263 4.8 17.7 0.00 0.00 0.00 39 1014.5
20260901200020 36 259 4.8 16.1 0.00 0.00 0.00 39 1013.4
20260901194538 35 288 12.9 22.5 0.00 0.00 0.00 37 1014.7
20260901193034 35 263 6.4 19.3 0.00 0.00 0.00 43 1014.7
20260901191552 35 321 8.0 19.3 0.00 0.00 0.00 39 1014.9
20260901190035 35 252 4.8 22.5 0.00 0.00 0.00 43 1015.1
20260901190029 35 274 6.4 19.3 0.00 0.00 0.00 43 1013.9
20260901184544 35 270 8.0 17.7 0.00 0.00 0.00 42 1015.2
20260901183046 35 259 8.0 17.7 0.00 0.00 0.00 44 1015.3
20260901181535 34 271 9.7 25.7 0.00 0.00 0.00 45 1015.6
20260901180034 33 255 9.7 24.1 0.00 0.00 0.00 45 1015.8
20260901180020 34 255 9.7 17.7 0.00 0.00 0.00 46 1014.6
20260901174536 33 297 6.4 19.3 0.00 0.00 0.00 49 1016.0
20260901173049 33 298 9.7 22.5 0.00 0.00 0.00 48 1016.1
20260901171535 32 263 8.0 22.5 0.00 0.00 0.00 50 1016.1
20260901170037 32 279 8.0 22.5 0.00 0.00 0.00 51 1016.3
20260901170012 32 281 8.0 16.1 0.00 0.00 0.00 52 1015.2
20260901164542 32 276 8.0 24.1 0.00 0.00 0.00 53 1016.4
20260901163037 31 306 9.7 17.7 0.00 0.00 0.00 51 1016.4
20260901161549 31 270 9.7 20.9 0.00 0.00 0.00 54 1016.4
20260901160039 30 259 8.0 17.7 0.00 0.00 0.00 57 1016.6
20260901160027 31 270 8.0 16.1 0.00 0.00 0.00 57 1015.4
20260901154547 30 279 8.0 17.7 0.00 0.00 0.00 57 1016.4
20260901153045 29 252 6.4 16.1 0.00 0.00 0.00 60 1016.6
20260901151539 28 279 6.4 16.1 0.00 0.00 0.00 62 1016.7
20260901150040 28 265 4.8 16.1 0.00 0.00 0.00 63 1016.7
20260901150018 28 265 4.8 14.5 0.00 0.00 0.00 63 1015.4
20260901144540 27 251 4.8 12.9 0.00 0.00 0.00 66 1016.6
20260901143045 27 298 4.8 12.9 0.00 0.00 0.00 67 1016.6
20260901141546 26 255 6.4 14.5 0.00 0.00 0.00 68 1016.5
20260901140036 26 254 4.8 16.1 0.00 0.00 0.00 70 1016.7
20260901140021 26 254 4.8 11.3 0.00 0.00 0.00 71 1015.6
20260901134539 25 258 4.8 14.5 0.00 0.00 0.00 73 1016.6
20260901133036 23 266 4.8 11.3 0.00 0.00 0.00 75 1016.8
20260901131536 23 271 4.8 11.3 0.00 0.00 0.00 76 1016.6
20260901130034 22 0 1.6 9.7 0.00 0.00 0.00 78 1016.6
20260901130026 23 263 1.6 8.0 0.00 0.00 0.00 78 1015.6
20260901124540 22 0 1.6 6.4 0.00 0.00 0.00 79 1016.5
20260901123035 21 281 1.6 4.8 0.00 0.00 0.00 81 1016.5
20260901121536 21 0 0.0 3.2 0.00 0.00 0.00 80 1016.4
20260901120034 21 0 0.0 3.2 0.00 0.00 0.00 81 1016.2
20260901120021 21 279 0.0 3.2 0.00 0.00 0.00 81 1015.1
20260901114545 21 0 0.0 1.6 0.00 0.00 0.00 82 1016.1
20260901113037 21 0 0.0 1.6 0.00 0.00 0.00 83 1016.1
20260901111535 21 0 0.0 0.0 0.00 0.00 0.00 82 1015.9
20260901110051 21 257 0.0 0.0 0.00 0.00 0.00 81 1014.7
20260901110036 21 0 0.0 0.0 0.00 0.00 0.00 81 1015.8
20260901104537 21 0 0.0 3.2 0.00 0.00 0.00 80 1015.7
20260901103036 21 0 0.0 1.6 0.00 0.00 0.00 79 1015.6
20260901101538 22 0 0.0 1.6 0.00 0.00 0.00 79 1015.6